(361629) = 2005 AW77 = 2007 TD164

Discovered at Socorro on 2007-10-11 by LINEAR.

Orbit

Orbit type: Main Belt

Note: WebGL enabled browser required.

epoch2024-03-31.0
epoch JD2460400.5
perihelion date2022-10-21.42328
perihelion JD2459873.92328
argument of perihelion (°)19.22175
ascending node (°)21.23014
inclination (°)3.89592
eccentricity0.1097293
perihelion distance (AU)2.1349819
Tisserand w.r.t. Jupiter3.5
ΔV w.r.t. Earth (km/sec)9.2
semimajor axis (AU)2.3981266
mean anomaly (°)139.75178
mean daily motion (°/day)0.26539680
aphelion distance (AU)2.661
period (years)3.71
P-vector [x]0.76122651
P-vector [y]0.58572241
P-vector [z]0.27832257
Q-vector [x]-0.64801918
Q-vector [y]0.67077277
Q-vector [z]0.36074233
absolute magnitude17.55
phase slope0.15
uncertainty0
referenceMPEC 2024-F14
observations used294
oppositions12
arc length (days)7510
first opposition used2003
last opposition used2024
residual rms (arc-secs)0.79
perturbers coarse indicatorM-v
perturbers precise indicator003Ek
first observation date used2003-08-25.0
last observation date used2024-03-17.0
computer nameMPCLINUX
JD of orbit computation2456909.219578
perihelion JD uncertainty (days)1.0832E-04
argument of perihelion uncertainty (°)7.5079E-05
ascending node uncertainty (°)6.9932E-05
inclination uncertainty (°)4.5360E-06
eccentricity uncertainty 4.5186E-08
perihelion distance uncertainty (AU)1.1728E-07
Minimum Orbit Intersection Distances (in AU)
for orbit epoch: 2460400.5, reference: E2024-G95
Mercury1.81055
Venus1.41328
Earth1.14336
Mars0.64222
Jupiter2.70256
Saturn6.78
Uranus15.8758
Neptune27.6846

Observations

302 total observations over interval: 2003 08 25.23574 – 2024 03 17.524689
These data are available for download (format description).

Date (UT) J2000 RA J2000 Dec Magn Location Ref
2003 08 25.23574 22 26 32.89 -15 27 32.0 19.7   644 – Palomar Mountain/NEAT MPS 223636
2003 08 25.30954 22 26 28.41 -15 27 50.6 19.5   644 – Palomar Mountain/NEAT MPS 223636
2003 08 25.37203 22 26 24.62 -15 28 06.2 19.7   644 – Palomar Mountain/NEAT MPS 223636
2005 01 15.45656 09 44 53.05 +19 54 37.9 20.8 V 691 – Steward Observatory, Kitt Peak-Spacewatch MPS 125498
2005 01 15.48249 09 44 51.83 +19 54 45.1 21.0 V 691 – Steward Observatory, Kitt Peak-Spacewatch MPS 125498
2005 01 15.54505 09 44 48.89 +19 55 01.2 20.9 V 691 – Steward Observatory, Kitt Peak-Spacewatch MPS 125498
2005 01 19.40367 09 41 41.80 +20 12 49.0 20.6 V 691 – Steward Observatory, Kitt Peak-Spacewatch MPS 125498
2005 01 19.42927 09 41 40.41 +20 12 56.3 20.8 V 691 – Steward Observatory, Kitt Peak-Spacewatch MPS 125498
2005 01 19.45502 09 41 39.03 +20 13 03.6 20.8 V 691 – Steward Observatory, Kitt Peak-Spacewatch MPS 125498
2007 09 11.41507 01 38 56.11 +08 50 15.3 20.2 V G96 – Mt. Lemmon Survey MPS 223636
2007 09 11.42329 01 38 55.93 +08 50 15.5 20.2 V G96 – Mt. Lemmon Survey MPS 223636
2007 09 11.43139 01 38 55.71 +08 50 15.1 20.2 V G96 – Mt. Lemmon Survey MPS 223636
2007 09 11.43956 01 38 55.57 +08 50 15.1 20.4 V G96 – Mt. Lemmon Survey MPS 223636
2007 09 20.32550 01 34 40.69 +08 43 41.4 19.5 V 703 – Catalina Sky Survey MPS 223636
2007 09 20.33260 01 34 40.36 +08 43 39.7 19.2 V 703 – Catalina Sky Survey MPS 223636
2007 09 20.33976 01 34 40.11 +08 43 40.4 19.7 V 703 – Catalina Sky Survey MPS 223636
2007 09 20.34689 01 34 39.72 +08 43 38.2 20.0 V 703 – Catalina Sky Survey MPS 223636
2007 10 04.19110 01 23 55.48 +08 13 45.0   691 – Steward Observatory, Kitt Peak-Spacewatch MPS 229075
2007 10 04.20867 01 23 54.48 +08 13 42.3   691 – Steward Observatory, Kitt Peak-Spacewatch MPS 229075
2007 10 04.22625 01 23 53.50 +08 13 39.5   691 – Steward Observatory, Kitt Peak-Spacewatch MPS 229075
2007 10 04.32166 01 23 48.04 +08 13 23.7 20.2 V 703 – Catalina Sky Survey MPS 223636
2007 10 04.32926 01 23 47.65 +08 13 22.6 20.1 V 703 – Catalina Sky Survey MPS 223636
2007 10 04.33690 01 23 47.11 +08 13 21.2 19.6 V 703 – Catalina Sky Survey MPS 223636
2007 10 04.34449 01 23 46.75 +08 13 20.4 20.0 V 703 – Catalina Sky Survey MPS 223636
2007 10 11.23227 01 17 13.16 +07 52 15.4 19.9 V 703 – Catalina Sky Survey MPS 223636
2007 10 11.24019 01 17 12.73 +07 52 12.7 19.6 V 703 – Catalina Sky Survey MPS 223636
2007 10 11.24791 01 17 12.26 +07 52 12.4 19.5 V 703 – Catalina Sky Survey MPS 223636
2007 10 11.25503 01 17 11.83 +07 52 11.1 19.6 V 703 – Catalina Sky Survey MPS 223636
2007 10 11.26376 01 17 11.15 +07 52 07.4 20.7   704 – Lincoln Laboratory ETS, New Mexico MPS 220882
2007 10 11.28595 01 17 09.81 +07 52 04.2 20.1   704 – Lincoln Laboratory ETS, New Mexico MPS 220882
2007 10 11.29699 01 17 09.23 +07 52 01.9 20.2   704 – Lincoln Laboratory ETS, New Mexico MPS 220882
2007 10 14.20640 01 14 17.68 +07 42 35.5 19.1   704 – Lincoln Laboratory ETS, New Mexico MPS 220882
2007 10 14.21762 01 14 17.03 +07 42 33.5 19.4   704 – Lincoln Laboratory ETS, New Mexico MPS 220882
2007 10 14.22870 01 14 16.34 +07 42 31.8 19.7   704 – Lincoln Laboratory ETS, New Mexico MPS 220882
2007 10 14.23976 01 14 15.63 +07 42 29.3 19.6   704 – Lincoln Laboratory ETS, New Mexico MPS 220882
2007 10 15.14987 01 13 22.02 +07 39 30.7 19.6 V 691 – Steward Observatory, Kitt Peak-Spacewatch MPS 229075
2007 10 15.16751 01 13 20.94 +07 39 27.2 19.6 V 691 – Steward Observatory, Kitt Peak-Spacewatch MPS 229075
2007 10 15.18516 01 13 19.87 +07 39 23.7 19.6 V 691 – Steward Observatory, Kitt Peak-Spacewatch MPS 229075
2007 10 20.21264 01 08 26.52 +07 23 13.9 19.9 V 703 – Catalina Sky Survey MPS 223636
2007 10 20.21707 01 08 26.16 +07 23 13.3 20.6 V 703 – Catalina Sky Survey MPS 223636
2007 10 20.22149 01 08 25.94 +07 23 12.3 19.7 V 703 – Catalina Sky Survey MPS 223636
2007 10 20.22591 01 08 25.62 +07 23 11.1 19.9 V 703 – Catalina Sky Survey MPS 223636
2007 11 01.20355 00 58 03.54 +06 50 23.8 19.9 V G96 – Mt. Lemmon Survey MPS 223636
2007 11 01.20802 00 58 03.32 +06 50 23.3 19.9 V G96 – Mt. Lemmon Survey MPS 223636
2007 11 01.21245 00 58 03.14 +06 50 22.7 19.8 V G96 – Mt. Lemmon Survey MPS 223636
2007 11 01.21686 00 58 02.89 +06 50 22.2 19.8 V G96 – Mt. Lemmon Survey MPS 223636
2007 12 15.11395 00 54 26.74 +07 45 32.2 21.2 V G96 – Mt. Lemmon Survey MPS 231358
2007 12 15.11949 00 54 26.92 +07 45 33.4 21.8 V G96 – Mt. Lemmon Survey MPS 231358
2007 12 15.12506 00 54 27.10 +07 45 35.3 21.0 V G96 – Mt. Lemmon Survey MPS 231358
2007 12 15.13069 00 54 27.28 +07 45 36.7 21.3 V G96 – Mt. Lemmon Survey MPS 231358
2011 10 27.42681 05 08 31.38 +26 49 23.7 19.9 V G96 – Mt. Lemmon Survey MPS 396370
2011 10 27.43377 05 08 31.30 +26 49 25.4 20.1 V G96 – Mt. Lemmon Survey MPS 396370
2011 10 27.44062 05 08 31.20 +26 49 26.8 19.5 V G96 – Mt. Lemmon Survey MPS 396370
2011 10 27.44756 05 08 31.09 +26 49 27.6 19.8 V G96 – Mt. Lemmon Survey MPS 396370
2011 11 17.21703 04 56 26.92 +27 35 12.4 20.3 V 691 – Steward Observatory, Kitt Peak-Spacewatch MPS 400061
2011 11 17.23481 04 56 25.89 +27 35 14.2 20.4 V 691 – Steward Observatory, Kitt Peak-Spacewatch MPS 400061
2011 11 17.25258 04 56 24.87 +27 35 15.7 20.3 V 691 – Steward Observatory, Kitt Peak-Spacewatch MPS 400061
2011 11 23.30560 04 50 21.55 +27 41 03.0 20.5 V 703 – Catalina Sky Survey MPS 402421
2011 11 23.31294 04 50 21.22 +27 41 04.3 20.2 V 703 – Catalina Sky Survey MPS 402421
2011 11 23.32037 04 50 20.65 +27 41 03.8 20.4 V 703 – Catalina Sky Survey MPS 402421
2011 11 23.32781 04 50 20.22 +27 41 03.7 19.3 V 703 – Catalina Sky Survey MPS 402421
2011 11 28.50362 04 44 37.544 +27 42 32.28 20.4 g F51 – Pan-STARRS 1, Haleakala MPS 402421
2011 11 28.51655 04 44 36.634 +27 42 32.11 20.4 g F51 – Pan-STARRS 1, Haleakala MPS 402421
2011 11 28.53092 04 44 35.605 +27 42 31.92 19.9 r F51 – Pan-STARRS 1, Haleakala MPS 402421
2011 11 28.54383 04 44 34.707 +27 42 31.76 20.1 r F51 – Pan-STARRS 1, Haleakala MPS 402421
2011 11 29.17920 04 43 52.02 +27 42 26.9   691 – Steward Observatory, Kitt Peak-Spacewatch MPS 402421
2011 11 29.19699 04 43 50.81 +27 42 27.1   691 – Steward Observatory, Kitt Peak-Spacewatch MPS 402421
2011 11 29.21478 04 43 49.47 +27 42 28.0   691 – Steward Observatory, Kitt Peak-Spacewatch MPS 402421
2011 12 25.14275 04 17 08.08 +27 07 36.6 20.2 V G96 – Mt. Lemmon Survey MPS 404693
2011 12 25.15035 04 17 07.72 +27 07 35.7 20.2 V G96 – Mt. Lemmon Survey MPS 404693
2011 12 25.15797 04 17 07.36 +27 07 34.9 20.2 V G96 – Mt. Lemmon Survey MPS 404693
2011 12 25.16565 04 17 07.00 +27 07 33.8 20.4 V G96 – Mt. Lemmon Survey MPS 404693
2011 12 28.14583 04 15 02.88 +27 01 29.3 20.0 V G96 – Mt. Lemmon Survey MPS 404693
2011 12 28.15450 04 15 02.55 +27 01 28.1 20.0 V G96 – Mt. Lemmon Survey MPS 404693
2011 12 28.16325 04 15 02.19 +27 01 27.0 20.2 V G96 – Mt. Lemmon Survey MPS 404693
2011 12 28.17201 04 15 01.83 +27 01 26.0 20.2 V G96 – Mt. Lemmon Survey MPS 404693
2013 04 02.37787 13 27 09.61 -08 55 07.6 21.1 V G96 – Mt. Lemmon Survey MPS 461673
2013 04 02.38686 13 27 09.14 -08 55 05.7 20.8 V G96 – Mt. Lemmon Survey MPS 461673
2013 04 02.39587 13 27 08.53 -08 55 03.8 20.4 V G96 – Mt. Lemmon Survey MPS 461673
2013 04 02.40492 13 27 07.95 -08 55 01.6 20.8 V G96 – Mt. Lemmon Survey MPS 461673
2013 04 06.37506 13 23 21.55 -08 38 43.8 20.4 V G96 – Mt. Lemmon Survey MPS 462732
2013 04 06.38090 13 23 21.19 -08 38 42.5 20.7 V G96 – Mt. Lemmon Survey MPS 462732
2013 04 06.38675 13 23 20.83 -08 38 40.9 20.8 V G96 – Mt. Lemmon Survey MPS 462732
2013 04 06.39257 13 23 20.50 -08 38 39.1 20.4 V G96 – Mt. Lemmon Survey MPS 462732
2013 04 10.41638 13 19 26.224 -08 21 31.10 20.7 w F51 – Pan-STARRS 1, Haleakala MPS 462732
2013 04 10.43002 13 19 25.390 -08 21 27.50 20.8 w F51 – Pan-STARRS 1, Haleakala MPS 462732
2013 04 10.44371 13 19 24.559 -08 21 24.09 20.5 w F51 – Pan-STARRS 1, Haleakala MPS 462732
2013 04 10.45741 13 19 23.735 -08 21 20.51 20.6 w F51 – Pan-STARRS 1, Haleakala MPS 462732
2013 04 16.30298 13 13 43.49 -07 56 07.4 21.8 r W84 – Cerro Tololo-DECam MPS 470639
2013 04 16.30713 13 13 43.24 -07 56 06.3 21.8 r W84 – Cerro Tololo-DECam MPS 470639
2013 04 16.31150 13 13 42.99 -07 56 05.2 21.8 r W84 – Cerro Tololo-DECam MPS 470639
